Regional Weather Roundup
Issued by NWS

Home | Current Version | Previous Version | Graphics & Text | Print | Product List | Glossary On
Versions: 1 2 3 4 5 6 7 8 9 10 11 12 13 14 15 16 17 18 19 20 21 22 23 24 25 26 27 28 29 30 31 32 33 34 35 36 37 38 39 40 41 42 43 44 45 46 47 48 49 50
000
ASUS43 KMPX 061401
RWRMN
WEATHER ROUNDUP FOR MINNESOTA
NATIONAL WEATHER SERVICE TWIN CITIES/CHANHASSEN MN
900 AM CDT MON JUL 06 2015


NOTE: "FAIR" INDICATES FEW OR NO CLOUDS BELOW 12,000 FEET WITH NO
SIGNIFICANT WEATHER AND/OR OBSTRUCTIONS TO VISIBILITY. N/A MEANS
CURRENT SKY AND/OR WEATHER CONDITIONS ARE NOT AVAILABLE.

MNZ060>063-068>070-061500-
   Twin Cities Metro

CITY           SKY/WX    TMP DP  RH WIND       PRES   REMARKS
TWIN CITIES    CLOUDY    71  69  93 SE6       29.77F
ST PAUL        CLOUDY    70  69  97 SE3       29.77F
CRYSTAL        CLOUDY    73  69  87 W3        29.77S
BLAINE         DRIZZLE   72  72 100 CALM      29.78F
LAKEVILLE      CLOUDY    70  70 100 S3        29.77F
EDEN PRAIRIE   CLOUDY    73  69  87 CALM      29.76F
SOUTH ST PAUL  CLOUDY    71  69  96 CALM      29.77F
LAKE ELMO      DRIZZLE   70  70 100 SE3       29.79F
$$
MNZ001>005-007-008-013>017-022>024-027-028-061500-
   Northwest Minnesota

CITY           SKY/WX    TMP DP  RH WIND       PRES   REMARKS
BEMIDJI        PTSUNNY   57  52  82 N14       30.00R
HALLOCK        PTSUNNY   54  48  82 N10       30.09R
ROSEAU         PTSUNNY   55  46  71 N14       30.06R
WARROAD        MOSUNNY   54  45  71 NW13      30.05S
THIEF RVR FALL SUNNY     55  46  71 N17       30.06R
CROOKSTON      PTSUNNY   57  52  82 N15       30.06R
FOSSTON        MOSUNNY   57  50  77 N12G20    30.04R
DETROIT LAKES  MOSUNNY   61  52  72 N9G18     30.00S HAZE
MOORHEAD       MOSUNNY   61  52  72 N17G25    30.02S
PARK RAPIDS    CLOUDY    63  57  81 N16       29.96S HAZE
MAHNOMEN       CLOUDY    57  52  82 N16       30.01F
$$
MNZ006-009>011-018-025>026-061500-
   North Central Minnesota

CITY           SKY/WX    TMP DP  RH WIND       PRES   REMARKS
BAUDETTE       MOSUNNY   56  46  69 NW16G24   30.00R
FLAG ISLAND    PTSUNNY   54  46  76 NW18      30.02S
INTL FALLS     CLOUDY    58  51  78 N12       29.96S
WASKISH        MOSUNNY   57  48  72 NW14      30.00S
BIG FORK       CLOUDY    57  54  88 NW7       29.97R FOG
LONGVILLE      CLOUDY    63  59  88 N6        29.94R FOG
GRAND RAPIDS   CLOUDY    61  55  82 N14       29.93R
CRANE LAKE     CLOUDY    59  55  88 N6          N/A
COOK           CLOUDY    61  57  88 N3        29.93F FOG
WALKER         CLOUDY    59  56  89 N10G17    29.96S FOG
$$
MNZ012-019>021-037-061500-
   Northeast Minnesota

CITY           SKY/WX    TMP DP  RH WIND       PRES   REMARKS
DULUTH         HVY RAIN  61  58  90 NE8       29.88S VSB 3/4
ELY              N/A     59  57  94 N3        29.91S FOG
HIBBING        CLOUDY    61  58  90 N14       29.90F FOG
DULUTH HARBOR  LGT RAIN  63  61  94 N14       29.87S
TWO HARBORS    CLOUDY    64  61  88 NE6       29.86F
SILVER BAY     LGT RAIN  63  61  94 CALM      29.87S
GRAND MARAIS     N/A     60  58  92 N3        29.88R
G MARAIS ARPRT LGT RAIN  57  55  94 CALM      29.92R
$$
MNZ029>031-032-039>041-046>048-054>057-064-061500-
   West Central Minnesota

CITY           SKY/WX    TMP DP  RH WIND       PRES   REMARKS
FERGUS FALLS     N/A     63  59  88 N13       29.97R FOG
WHEATON          N/A     61  57  88 N14       29.99R FOG
MORRIS         LGT RAIN  66  64  94 N15G21    29.93R
ALEXANDRIA     CLOUDY    65  61  87 N16       29.94R FOG
ELBOW LAKE     FAIR      64  62  91 N14       29.95R FOG
WADENA         CLOUDY    63  61  94 N14       29.94R FOG
GLENWOOD       RAIN      64  63  94 N13G18    29.92R
APPLETON       LGT RAIN  66  64  94 N15       29.92R
BENSON         LGT RAIN  66  63  88 NE10      29.90R
ORTONVILLE     CLOUDY    64  61  88 N20G25    29.94R FOG
MADISON        LGT RAIN  66  63  88 N15       29.93R
WILLMAR        LGT RAIN  66  61  82 N16       29.89R
$$
MNZ033>034-036-042>043-049>051-058-059-061500-
   Central Minnesota

CITY           SKY/WX    TMP DP  RH WIND       PRES   REMARKS
ST CLOUD       CLOUDY    64  62  93 N9        29.84S FOG
SAUK CENTRE    DRIZZLE   64  59  86 N9        29.90R
PAYNESVILLE    LGT RAIN  62  58  88 NW10G18   29.88R
AITKIN         CLOUDY    63  57  82 N9        29.89R HAZE
PINE RIVER       N/A     63  61  94 N14G20    29.95S FOG
BRAINERD       LGT RAIN  64  61  90 N9        29.90S FOG
STAPLES        LGT RAIN  63  61  94 N10       29.92S
LONG PRAIRIE   LGT RAIN  63  61  94 NW12G17   29.91R
LITTLE FALLS   CLOUDY    63  55  77 N5        29.89R HAZE
LITCHFIELD     CLOUDY    64  64 100 N13G18    29.85S
BUFFALO        LGT RAIN  68  65  90 NW14G21   29.82R
MAPLE LAKE     LGT RAIN  66  65  97 N12G21    29.84R
$$
MNZ037-044-045-052-053-061500-
   East Central Minnesota

CITY           SKY/WX    TMP DP  RH WIND       PRES   REMARKS
PRINCETON      DRIZZLE   66  64  94 NW14      29.84R
MORA           RAIN      59  59 100 N7        29.86S
CAMBRIDGE      RAIN      70  63  78 N5        29.79F
RUSH CITY      LGT RAIN  67  66  97 N6        29.81F
MOOSE LAKE     RAIN      61  59  94 N8        29.86R
HINCKLEY       RAIN      63  63 100 N16       29.84S
CLOQUET        HVY RAIN  61  59  94 N7        29.88S
MCGREGOR       CLOUDY    63  59  88 N8        29.89S
$$
MNZ071>073-080-081-089-090-097-098-061500-
   Southwest Minnesota

CITY           SKY/WX    TMP DP  RH WIND       PRES   REMARKS
MONTEVIDEO     DRIZZLE   66  66 100 N15       29.90R
GRANITE FALLS  LGT RAIN  66  62  85 N14G20    29.90R
CANBY          LGT RAIN  65  64  93 N12       29.94R
MARSHALL       CLOUDY    66  61  82 N14       29.89R
REDWOOD FALLS  LGT RAIN  69  67  93 N9        29.85R
OLIVIA         LGT RAIN  66  64  94 N12       29.84R
PIPESTONE      DRIZZLE   66  64  94 N9        29.91S
WINDOM         LGT RAIN  70  68  94 NW10      29.85R
WORTHINGTON    CLOUDY    68  64  88 NW12      29.88R
JACKSON        CLOUDY    72  70  94 W9        29.85R
TRACY          DRIZZLE   68  67  96 NW10G16   29.89R
SLAYTON        CLOUDY    67  67 100 NW13      29.90R FOG
$$
MNZ065>067-074>077-082>085-091>093-061500-
   South Central Minnesota

CITY           SKY/WX    TMP DP  RH WIND       PRES   REMARKS
MANKATO        CLOUDY    70  66  88 SW6       29.80R
NEW ULM        RAIN      70  70 100 W6        29.82R
ST JAMES       CLOUDY    73  72  94 SW8       29.82S
FAIRMONT       CLOUDY    72  64  78 W6        29.80R
GLENCOE        DRIZZLE   72  72  99 NW8       29.80R
FARIBAULT      CLOUDY    72  72 100 S6        29.78F
OWATONNA       CLOUDY    73  70  88 S6        29.79F
WASECA         CLOUDY    72  70  94 W7        29.82R
ALBERT LEA     CLOUDY    72  70  94 S9        29.82R
$$
MNZ078>079-086>088-094>096-061500-
   Southeast Minnesota

CITY           SKY/WX    TMP DP  RH WIND       PRES   REMARKS
ROCHESTER      LGT RAIN  71  69  93 S7        29.83F
RED WING       CLOUDY    73  72  94 SE6       29.77F
DODGE CENTER   LGT RAIN  72  70  94 S9        29.81F
WINONA         CLOUDY    73  72  94 SE3       29.82S
AUSTIN         DRIZZLE   72  70  94 S8        29.85S
PRESTON        LGT RAIN  70  68  94 S9        29.87R
$$
ABBREVIATIONS USED IN REMARKS
   TC - TEMPERATURES IN CELSIUS
  WCI - WIND CHILL INDEX
   HX - HEAT INDEX
  VSB - VISIBILITY
$$


USA.gov is the U.S. government's official web portal to all federal, state and local government web resources and services.